Regional Weather Roundup
Issued by NWS Grand Forks, ND

Home | Current Version | Previous Version | Text Only | Print | Product List | Glossary On
Versions: 1 2 3 4 5 6 7 8 9 10 11 12 13 14 15 16 17 18 19 20 21 22 23 24 25 26 27 28 29 30 31 32 33 34 35 36 37 38 39 40 41 42 43 44 45 46 47 48 49 50
000
ASUS43 KFGF 030510
RWRFGF
PRAIRIE TO PINES  WEATHER ROUNDUP
NATIONAL WEATHER SERVICE EASTERN NORTH DAKOTA/GRAND FORKS ND
1200 AM CDT THU SEP 03 2015

 **SATELLITE DATA USED TO AUGMENT SKY COVER AT AUTOMATED STATIONS**
 *****  WEATHER ACROSS EASTERN NORTH DAKOTA  *****

CITY           SKY/WX    TMP DP  RH WIND       PRES   REMARKS
GRAND FORKS    CLEAR     74  66  76 S15       29.80F
GRAND FRKS AFB CLEAR     73  67  81 S10       29.81S
GRAND FRKS NWS   N/A     73 N/A N/A S16         N/A
DEVILS LAKE    CLEAR     73  64  73 SE14      29.77S
FARGO          CLEAR     74  68  81 SE13      29.81F
WAHPETON ARPT  CLEAR     72  64  78 SE12      29.84S
$$

 ***** WEATHER ACROSS CENTRAL AND WESTERN NORTH DAKOTA  *****

CITY           SKY/WX    TMP DP  RH WIND       PRES   REMARKS
BISMARCK       PTCLDY    72  69  90 E7        29.74S
MINOT          MOCLDY    69  61  75 SE6       29.70S
JAMESTOWN      CLEAR     74  71  91 SE15      29.78S
MINOT AFB      MOCLDY    70  67  88 SE9       29.69S
GARRISON         N/A     72  63  73 SE7       29.72S
WILLISTON      PTCLDY    81  52  36 S6        29.64S
DICKINSON      MOCLDY    73  55  53 SE10      29.71F
HETTINGER      PTCLDY    72  55  55 E10       29.75F
$$

 *****  OTHER AIRPORT OBSERVATIONS IN OUR AREA  *****

CITY           SKY/WX    TMP DP  RH WIND       PRES   REMARKS
WALHALLA       FAIR      73  68  83 MISG      29.77S
GRAFTON AIRPOR FAIR      72  68  88 SE7       29.80F
VALLEY CITY AR FAIR      73  73 100 SE9G16    29.81S
CANDO          NOT AVBL
CAVALIER APRT  FAIR      75  66  73 S9        29.78F
GWINNER        MOCLDY    75  75 100 SE16      29.81S
SHEYENNE NWR     N/A     72  70  93 SE9       29.95S
ROLLA          FAIR      72  68  88 S12       29.78F
 ***** THE ABOVE OBSERVATIONS ARE NON NWS ARE NOT QUALITY
       CONTROLLED AND MAY MIS-REPORT RAIN FOR SNOW...
$$

  *****  WEATHER ACROSS NORTHERN MINNESOTA  *****

CITY           SKY/WX    TMP DP  RH WIND       PRES   REMARKS
FLAG ISLAND    CLEAR     73  64  73 SE12      29.87S
WARROAD        CLEAR     70  64  83 SE5       29.88R
ROSEAU         CLEAR     70  64  83 SE7       29.86S
HALLOCK        CLEAR     72  66  83 SE9       29.80S
THF RVR FALLS  CLEAR     70  66  88 SE8       29.86S
BAUDETTE       CLEAR     66  62  87 SE9       29.90R
WASKISH        CLEAR     64  63  94 CALM      29.92R
CROOKSTON      CLEAR     72  66  83 SE8       29.83F
STEPHEN NDAWN    N/A     70  66  88 SE8         N/A
GREENBUSH NDAW   N/A     72  66  83 S9          N/A
$$
  *****  WEATHER ACROSS CENTRAL AND WEST MINNESOTA  *****

CITY           SKY/WX    TMP DP  RH WIND       PRES   REMARKS
FOSSTON        CLEAR     66  63  88 SE7       29.88S
BEMIDJI        CLEAR     67  64  93 SE9       29.92S
PARK RAPIDS    CLOUDY    70  65  84 SE8       29.92S
ELBOW LAKE     FAIR      70  69  95 E13       29.86S
WADENA         CLOUDY    66  66 100 E7        29.90F
DETROIT LAKES  CLEAR     70  66  88 SE9       29.90S
MOORHEAD       CLEAR     72  68  88 SE9       29.83S
FERGUS FALLS   CLEAR     72  68  88 E9        29.85S
MORRIS MN      CLEAR     72  70  94 SE7       29.85F FOG
STAPLES        CLOUDY    70  66  88 SE8       29.92S
$$
  *****  WEATHER ELSEWHERE ACROSS MINNESOTA  *****

CITY           SKY/WX    TMP DP  RH WIND       PRES   REMARKS
DULUTH         CLOUDY    63  61  93 E8        29.98S
INTRNTL FALLS  CLEAR     65  63  93 SE5       29.94R
ELY            CLEAR     59  57  94 CALM      29.99S FOG
CLOQUET        CLOUDY    63  61  94 E5        29.97S
WHEATON        CLEAR     70  66  88 E10       29.85S FOG
BRAINERD       CLEAR     67  65  93 CALM      29.93F
HIBBING        CLEAR     61  60  97 SE6       29.97R
ALEXANDRIA     CLOUDY    70  69  97 E13       29.91S FOG
SAINT CLOUD    MOCLDY    68  66  93 E6        29.92S
MINNEAPOLIS    MOCLDY    70  67  90 NE7       29.90F
$$

  *****  WEATHER ACROSS SOUTH DAKOTA  *****

CITY           SKY/WX    TMP DP  RH WIND       PRES   REMARKS
SIOUX FALLS    PTCLDY    74  70  87 SE5       29.85S
BROOKINGS      CLEAR     73  70  88 SE13      29.86F
WATERTOWN      CLEAR     75  71  87 SE10      29.84S
HURON          CLEAR     75  72  90 SE12      29.77S
SISSETON         N/A     74  72  93 SE9       29.82S
ABERDEEN       CLEAR     76  72  87 SE12      29.77S
MITCHELL       CLEAR     74  72  93 SE10      29.79S
PIERRE         CLEAR     79  59  50 S7        29.71S
MOBRIDGE       CLEAR     79  74  84 SE13      29.70F
RAPID CITY     CLEAR     64  52  64 CALM      29.80F
$$

  *****  SOME WEATHER IN NEARBY STATES *****

CITY           SKY/WX    TMP DP  RH WIND       PRES   REMARKS
GLASGOW MT     PTCLDY    70  40  33 N14       29.66R
GREAT FALLS MT LGT RAIN  62  39  42 E5        29.87R
CHEYENNE WY    MOCLDY    68  41  37 W9        30.09S
SCOTTSBLUFF NE PTCLDY    69  53  56 E5        29.91F
OMAHA NE       CLEAR     79  70  74 S13       29.87S
DES MOINES IA  PTCLDY    76  70  82 S8        29.91F
DAVENPORT IA   PTCLDY    75  67  76 S7        29.96S
CHICAGO IL     MOCLDY    79  67  66 SW6       29.97S
EAU CLAIRE WI  CLOUDY    69  67  93 CALM      29.92S
LA CROSSE WI   MOCLDY    76  70  82 S6        29.91R
$$

  *****  SOME NATIONAL WEATHER *****

CITY           SKY/WX    TMP DP  RH WIND       PRES   REMARKS
LA GUARDIA NY  CLEAR     79  70  74 SW5       29.87F
RALEIGH NC     MOCLDY    72  70  93 E5        29.99F
ATLANTA GA     CLOUDY    80  69  69 CALM      30.02F
NEW ORLEANS LA MOCLDY    78  71  79 CALM      30.00S
OKLAHOMA CITY  PTCLDY    73  63  70 SE9       29.96F
ALBUQUERQUE NM MOCLDY    72  50  45 CALM      30.21S
SALT LAKE CITY MOCLDY    81  37  20 S14       29.86S
LOS ANGELES CA PTCLDY    67  61  81 SW7       29.93R
BOISE ID       PTCLDY    69  40  34 W13       29.74R
SEATTLE WA     PTCLDY    56  49  77 NE3       29.96S
$$

*** WEATHER ACROSS MANITOBA...SASKATCHEWAN AND ONTARIO ***
                ***ONTARIO***

CITY           SKY/WX    TMP DP  RH WIND       PRES   REMARKS
GERALDTON      CLEAR     59  55  88 CALM      30.01S
THUNDER BAY    CLEAR     54  52  94 CALM      30.00R
SIOUX LOOKOUT  CLEAR     61  57  88 S2        29.96R
TORONTO        PTCLDY    77  68  73 N3        29.93S
BIG TROUT LK   CLEAR     64  61  88 S7        29.85S
PICKLE LAKE    NOT AVBL
DRYDEN         CLEAR     68  63  83 S9        29.94S
KENORA         CLEAR     72  64  78 S9          N/A
$$
                *** MANITOBA***

CITY           SKY/WX    TMP DP  RH WIND       PRES   REMARKS
BRANDON        PTCLDY    73  66  78 SE8       29.73S
DAUPHIN        CLEAR     63  61  94 NW5       29.66F
ISLAND LAKE    PTCLDY    64  63  94 SE2       29.76S
PILOT MOUND      N/A     73  64  73 S15         N/A
THE PAS        MOCLDY    68  54  60 SE13      29.67F
THOMPSON       MOCLDY    59  55  88 N3        29.78F
WINNIPEG       CLEAR     75  66  73 S14G21    29.77F
LYNN LAKE      LGT RAIN  57  50  77 SE3       29.77S
CHURCHILL      MOCLDY    48  48 100 NE3       29.81S
$$
                ***SASKATCHEWAN***

CITY           SKY/WX    TMP DP  RH WIND       PRES   REMARKS
ESTEVAN        CLOUDY    73  61  64 SE10      29.64F
KINDERSLEY     CLOUDY    55  41  58 NW8       29.77S
LLOYDMINSTER   CLEAR     54  43  66 N8        29.68S
PRINCE ALBERT  PTCLDY    55  54  94 CALM      29.60R
REGINA         MOCLDY    68  52  56 NW7       29.67R
YORKTON        CLEAR     63  59  88 SE3       29.65F
N. BATTLEFORD  CLEAR     61  48  63 W16G24    29.70R
LA RONGE       MOCLDY    66  54  63 SE9       29.61S
SASKATOON      MOCLDY    59  50  72 W10       29.68R
SWIFT CURRENT  PTCLDY    63  39  42 W9        29.77S
$$
NOTE: THESE ARE AUTOMATED STATIONS WITH LIMITED QUALITY CONTROL
      "FAIR" INDICATES FEW OR NO CLOUDS BELOW 12,000 FEET WITH NO
      SIGNIFICANT WEATHER AND/OR OBSTRUCTIONS TO VISIBILITY.
      SKY/WX - SKY CONDITION AND SIGNIFICANT WEATHER.
      TMP - AIR TEMPERATURE.    DP   - DEWPOINT TEMPERATURE.
      RH  - RELATIVE HUMIDITY.  PRES - PRESSURE.
      HX  - HEAT INDEX.         WCI  - WIND CHILL INDEX.
$


USA.gov is the U.S. government's official web portal to all federal, state and local government web resources and services.